sat.trackr.live / text

‹ back to catalog

STARLINK-30334

NORAD 57719 · 2023-129X

PAYLOAD ACTIVE UNKNOWN

§ Identity

Operator
Country
US
Launch date
2023-08-27
Launch site
AFETR
Launch vehicle
Mass (kg)
RCS (m²)

Purposes: comms

External: N2YO · Heavens-Above · Gunter

§ Orbital elements

Epoch: 2026-05-25T00:28:58.260000Z

Period
94.27 min
Inclination
42.9996°
Eccentricity
0.0000942
Mean motion
15.27574036 rev/d
Perigee alt
482.4 km
Apogee alt
483.7 km
Semi-major
6,861.2 km
B*
9.0212e-5
RAAN
47.0520°
Arg perigee
262.2691°
Mean anomaly
97.8054°
Rev number
15,220

§ Raw data

STARLINK-303341 57719U 23129X   26145.02011875  .00002221  00000+0  90212-4 0  99922 57719  42.9996  47.0520 0000942 262.2691  97.8054 15.27574036152204

JSON: /api/v1/satellites/57719 · /tle

For live sub-satellite position, see the globe view (requires WebGL).

§ Visibility from observer

Set your observer location to see the next 7 days of passes ≥ 10°. The values pass through the URL so the page stays shareable.

No JS? Fill the form by hand. The geolocation button needs JavaScript.